Flag for Germany Weather past 2 weeks in Waldkraiburg, Bavaria, Germany

Now
45 °F

Quite cool.


Feels Like: 40 °F
Forecast: 40 / 51 °F
Wind: 8 mph from West

Location: Erding Airport

Current Time: Oct 23, 2014 at 6:54:05 PM

Latest Report: Oct 23, 2014 at 6:20 PM


Visibility: 3 mi

Pressure: 30.21 "Hg

Humidity: 93%

Dew point: 43 °F

Location of WaldkraiburgLocation

Historic Weather in Waldkraiburg — Graph

°F

Waldkraiburg temperature yesterday

Maximum temperature yesterday: 46 °F (at 12:20 AM)
Minimum temperature yesterday: 39 °F (at 7:20 PM)
Average temperature yesterday: 42 °F

Past Weeks' High & Low Weather Summary

 TemperatureHumidityPressure
High75 °F (Oct 9, 2:20 PM)100% (Oct 8, 11:20 PM)30.27 "Hg (Oct 8, 11:20 PM)
Low39 °F (Oct 22, 7:20 PM)44% (Oct 9, 2:20 PM)29.65 "Hg (Oct 21, 8:20 PM)
Average55 °F89%29.97 "Hg
* Reported Oct 8 5:20 PM — Oct 23 5:20 PM, Waldkraiburg, Weather by CustomWeather, © 2014

Note: Actual official high and low records may vary slightly from our data, if they occured in-between our weather recording intervals... More about our weather records

Advertising

Waldkraiburg weather history for previous 24 hours

 ConditionsComfort  
Time TempWeatherWind HumidityBarometerVisibility
5:20 PM
Oct 23
46 °FCool.9 mph87%30.21 "Hg2 mi
4:20 PM46 °FCool.12 mph87%30.18 "Hg2 mi
3:20 PM46 °FPartly sunny.12 mph87%30.18 "HgN/A
2:20 PM45 °FPartly sunny.13 mph93%30.15 "HgN/A
1:20 PM45 °FLight rain. Partly sunny.12 mph87%30.15 "HgN/A
12:20 PM45 °FLight rain. Partly sunny.14 mph87%30.15 "HgN/A
11:20 AM45 °FLight rain. Partly sunny.13 mph87%30.12 "HgN/A
10:20 AM45 °FLight rain. Low clouds.17 mph87%30.09 "HgN/A
9:20 AM45 °FLight rain. Overcast.18 mph87%30.09 "HgN/A
8:20 AM45 °FLight rain. Overcast.17 mph87%30.07 "HgN/A
7:20 AM45 °FLight rain. Overcast.22 mph87%30.04 "HgN/A
6:20 AM45 °FQuite cool.22 mph87%30.01 "Hg2 mi
5:20 AM45 °FQuite cool.18 mph93%29.98 "Hg2 mi
4:20 AM45 °FQuite cool.20 mph93%29.98 "Hg2 mi
3:20 AM45 °FQuite cool.21 mph93%29.95 "Hg2 mi
2:20 AM45 °FQuite cool.20 mph93%29.95 "Hg2 mi
1:20 AM45 °FQuite cool.20 mph93%29.92 "Hg2 mi
12:20 AM43 °FQuite cool.17 mph100%29.92 "Hg2 mi
11:20 PM
Oct 22
43 °FQuite cool.20 mph93%29.92 "Hg2 mi
10:20 PM41 °FQuite cool.18 mph100%29.92 "Hg2 mi
8:20 PM41 °FQuite cool.20 mph93%29.92 "Hg1 mi
7:20 PM39 °FChilly.18 mph93%29.92 "Hg1 mi
6:20 PM41 °FQuite cool.17 mph93%29.92 "Hg1 mi
Weather by CustomWeather, © 2014

See weather overviewHow to use our weather pages